Hourly Data Report for October 18, 2016

All times are specified in Local Standard Time (LST). Add 1 hour to adjust for Daylight Saving Time where and when it is observed.

BATHURST A
NEW BRUNSWICK

47°37'47.000" N
65°44'20.000" W
58.80 m
8100505
71574
ZBF

Download Data

Hourly Data (October 2016)
Hourly Data Report for October 18, 2016
Temp Definition
°C
Dew Point Temp Definition
°C
Rel Hum Definition
%
Wind Dir Definition
10's deg

Wind Spd Definition
km/h
Visibility Definition
km
Stn Press Definition
kPa
Hmdx Definition


Wind Chill Definition


Weather Definition


TIME
00:00 Legend Double Dagger 6.3 2.2 75 29 5 24.1 100.68     LegendNANA
01:00 Legend Double Dagger 4.9 1.9 81 29 7 24.1 100.76     LegendNANA
02:00 Legend Double Dagger 3.3 2.1 92 29 7 24.1 100.82     Mainly Clear
03:00 Legend Double Dagger 0.1 -0.8 94 22 6 24.1 100.90     LegendNANA
04:00 Legend Double Dagger 3.1 1.3 88 29 4 24.1 100.98     LegendNANA
05:00 Legend Double Dagger 3.4 1.5 87 34 5 24.1 101.05     Cloudy
06:00 Legend Double Dagger 3.3 2.3 93 27 3 24.1 101.03     LegendNANA
07:00 Legend Double Dagger 3.4 2.2 92 20 3 24.1 101.07     LegendNANA
08:00 Legend Double Dagger 4.9 3.3 89 26 7 24.1 101.28     Cloudy
09:00 Legend Double Dagger 7.3 4.5 82 15 7 24.1 101.32     LegendNANA
10:00 Legend Double Dagger 8.9 4.4 73 11 9 24.1 101.30     LegendNANA
11:00 Legend Double Dagger 8.7 5.5 80 8 11 24.1 101.17     Cloudy
12:00 Legend Double Dagger 9.5 5.9 78 13 10 24.1 101.11     LegendNANA
13:00 Legend Double Dagger 9.9 7.2 83 13 10 16.1 101.01     Rain Showers
14:00 Legend Double Dagger 8.9 8.2 95 15 18 4.8 100.96     Drizzle,Fog
15:00 Legend Double Dagger 8.7 7.8 94 13 12 4.8 100.89     Rain Showers,Fog
16:00 Legend Double Dagger 8.3 7.7 96 12 15 2.0 100.72     Drizzle,Fog
17:00 Legend Double Dagger 8.6 7.9 95 12 10 19.3 100.68     Drizzle
18:00 Legend Double Dagger 8.4 7.5 94 13 14 8.1 100.54     Rain Showers,Fog
19:00 Legend Double Dagger 8.2 7.1 93 14 16 11.3 100.41     LegendNANA
20:00 Legend Double Dagger 8.5 7.6 94 16 12 11.3 100.23     Cloudy
21:00 Legend Double Dagger 9.0 7.6 91 18 19 11.3 100.04     LegendNANA
22:00 Legend Double Dagger 9.1 7.6 90 18 15 11.3 99.83     LegendNANA
23:00 Legend Double Dagger 9.0 8.1 94 18 14 6.4 99.62     Rain Showers

Notes on Data Quality.

Legend

  • E = Estimated
  • M = Missing
  • NA = Not Available
  • ‡ = Partner data that is not subject to review by the National Climate Archives
Date modified: